Location: Mainz-Finthen
(49.9906°N, 8.1713°E)
Time: 22:48:00
(UTC+00:00)

BEESAT - Pass Details

Date: 09 December 2021
Orbit: 699 x 708 km, 98.6° (Epoch: 24 January)

Event Time Altitude Azimuth Distance (km) Brightness Sun altitude
Rises 05:10:25 0° 133° (SE) 3,090 ? -18.7°
Reaches altitude 10° 05:12:52 10° 123° (ESE) 2,177 ? -18.3°
Maximum altitude 05:17:00 30° 63° (ENE) 1,258 ? -17.7°
Drops below altitude 10° 05:21:10 10° 3° (N) 2,194 ? -17.1°
Sets 05:23:38 0° 353° (N) 3,118 ? -16.7°
